SCP
0 0 0 0 0 0 0 0 0 0 0 0 0 0 0 0 0 0 0 0 0 0 0 0 0 0 0 0 0 0 0 0 0 0 0 0 0 0 0 0 0 0 0
0 0 0 0 0 0 0 0 0 0 0 0 0 0 0 0 0 0 0 0 0 0 0 0 0 0 0 0 0 0 0 0 0 0 0 0 0 0 0 0 0 0 0
0 0 0 0 0 0 0 0 0 0 0 0 0 0 0 0 0 0 0 0 0 0 0 0 0 0 0 0 0 0 0 0 0 0 0 0 0 0 0 0 0 0 0
0 0 0 0 0 0 0 0 0 0 0 0 0 0 0 0 0 0 0 0 0 0 0 0 0 0 0 0 0 0 0 0 0 0 0 0 0 0 0 0 0 0 0
0 0 0 0 0 0 0 0 0 0 0 0 0 0 0 0 0 0 0 0 0 0 0 0 0 0 0 0 0 0 0 0 0 0 0 0 0 0 0 0 0 0 0
0 0 0 0 0 0 0 0 0 0 0 0 0 0 0 0 0 0 0 0 0 0 0 0 0 0 0 0 0 0 0 0 0 0 0 0 0 0 0 0 0 0 0
0 0 0 0 0 0 0 0 0 0 0 0 0 0 0 0 0 0 0 0 0 0 0 0 0 0 0 0 0 0 0 0 0 0 0 0 0 0 0 0 0 0 0
0 0 0 0 0 0 0 0 0 0 0 0 0 0 0 0 0 0 0 0 0 0 0 0 0 0 0 0 0 0 0 0 0 0 0 0 0 0 0 0 0 0 0
0 0 0 0 0 0 0 0 0 0 0 0 0 0 0 0 0 0 0 0 0 0 0 0 0 0 0 0 0 0 0 0 0 0 0 0 0 0 0 0 0 0 0
0 0 0 0 0 0 0 0 0 0 0 0 0 0 0 0 0 0 0 0 0 0 0 0 0 0 0 0 0 0 0 0 0 0 0 0 0 0 0 0 0 0 0
0 0 0 0 0 0 0 0 0 0 0 0 0 0 0 0 0 0 0 0 0 0 0 0 0 0 0 0 0 0 0 0 0 0 0 0 0 0 0 0 0 0 0
0 0 0 0 0 0 0 0 0 0 0 0 0 0 0 0 0 0 0 0 0 0 0 0 0 0 0 0 0 0 0 0 0 0 0 0 0 0 0 0 0 0 0
0 0 0 0 0 0 0 0 0 0 0 0 0 0 0 0 0 0 0 0 0 0 0 0 0 0 0 0 0 0 0 0 0 0 0 0 0 0 0 0 0 0 0
0 0 0 0 0 0 0 0 0 0 0 0 0 0 0 0 0 0 0 0 0 0 0 0 0 0 0 0 0 0 0 0 0 0 0 0 0 0 0 0 0 0 0
0 0 0 0 0 0 0 0 0 0 0 0 0 0 0 0 0 0 0 0 0 0 0 0 0 0 0 0 0 0 0 0 0 0 0 0 0 0 0 0 0 0 0
0 0 0 0 0 0 0 0 0 0 0 0 0 0 0 0 0 0 0 0 0 0 0 0 0 0 0 0 0 0 0 0 0 0 0 0 0 0 0 0 0 0 0
0 0 0 0 0 0 0 0 0 0 0 0 0 0 0 0 0 0 0 0 0 0 0 0 0 0 0 0 0 0 0 0 0 0 0 0 0 0 0 0 0 0 0
0 0 0 0 0 0 0 0 0 0 0 0 0 0 0 0 0 0 0 0 0 0 0 0 0 0 0 0 0 0 0 0 0 0 0 0 0 0 0 0 0 0 0
0 0 0 0 0 0 0 0 0 0 0 0 0 0 0 0 0 0 0 0 0 0 0 0 0 0 0 0 0 0 0 0 0 0 0 0 0 0 0 0 0 0 0
0 0 0 0 0 0 0 0 0 0 0 0 0 0 0 0 0 0 0 0 0 0 0 0 0 0 0 0 0 0 0 0 0 0 0 0 0 0 0 0 0 0 0
0 0 0 0 0 0 0 0 0 0 0 0 0 0 0 0 0 0 0 0 0 0 0 0 0 0 0 0 0 0 0 0 0 0 0 0 0 0 0 0 0 0 0
0 0 0 0 0 0 0 0 0 0 0 0 0 0 0 0 0 0 0 0 0 0 0 0 0 0 0 0 0 0 0 0 0 0 0 0 0 0 0 0 0 0 0
0 0 0 0 0 0 0 0 0 0 0 0 0 0 0 0 0 0 0 0 0 0 0 0 0 0 0 0 0 0 0 0 0 0 0 0 0 0 0 0 0 0 0
0 0 0 0 0 0 0 0 0 0 0 0 0 0 0 0 0 0 0 0 0 0 0 0 0 0 0 0 0 0 0 0 0 0 0 0 0 0 0 0 0 0 0
0 0 0 0 0 0 0 0 0 0 0 0 0 0 0 0 0 0 0 0 0 0 0 0 0 0 0 0 0 0 0 0 0 0 0 0 0 0 0 0 0 0 0
0 0 0 0 0 0 0 0 0 0 0 0 0 0 0 0 0 0 0 0 0 0 0 0 0 0 0 0 0 0 0 0 0 0 0 0 0 0 0 0 0 0 0
Wind_Speed_500mb
46 44 42 43 43 42 42 42 42 42 42 37 30 26 25 23 18 15 15 13 12 13 15 17 19 22 25 27 28 29 27 27 27 32 34 30 23 20 20 18 23 23 26
46 44 44 44 43 43 44 46 45 45 41 35 31 29 28 25 21 20 18 16 14 16 17 18 21 24 27 29 28 29 30 30 30 30 33 29 27 22 19 20 25 26 27
47 46 45 43 44 45 48 49 49 45 41 37 35 30 30 29 26 24 20 19 18 18 19 19 22 27 31 29 27 28 30 31 30 30 30 29 29 24 21 22 26 27 29
47 45 44 43 44 47 48 49 48 44 42 38 32 32 36 37 31 27 25 24 22 22 21 22 24 28 31 32 31 30 30 31 31 29 31 31 28 27 25 26 27 28 29
47 45 43 44 47 49 51 51 48 45 41 35 35 38 42 38 34 32 32 29 28 27 26 25 27 29 32 35 34 33 31 31 31 30 32 33 32 30 29 28 29 31 32
47 46 47 49 52 52 53 50 49 44 39 38 39 40 40 42 44 42 39 35 34 36 32 30 31 32 32 36 40 38 36 32 31 31 34 35 35 33 31 30 32 33 32
47 48 49 52 52 52 51 53 49 44 39 38 37 40 45 48 50 48 45 43 43 43 40 37 36 35 36 38 39 40 39 35 33 33 36 36 38 35 33 31 31 33 36
47 49 51 53 53 52 54 52 48 44 39 38 40 42 49 53 54 56 52 51 51 50 46 44 41 41 39 40 43 44 42 39 36 35 38 38 38 36 34 33 33 35 39
49 49 51 52 53 54 55 53 49 44 39 40 41 45 51 51 55 59 61 60 59 59 52 51 47 47 44 44 46 48 47 43 39 37 39 39 39 37 36 36 35 35 40
46 46 48 49 50 51 53 53 46 41 41 40 46 47 48 54 56 60 64 67 69 66 58 54 55 53 48 50 49 51 50 45 42 40 42 44 42 40 37 38 37 36 36
38 40 45 46 46 48 50 49 45 43 45 48 49 49 54 56 57 61 66 73 70 66 61 59 58 56 52 52 54 55 50 47 48 46 47 48 47 46 43 41 40 38 38
38 40 42 43 46 48 49 50 50 51 53 56 56 56 58 61 59 62 67 71 69 69 62 60 57 56 59 55 55 58 54 56 53 51 51 53 52 51 47 47 45 42 41
38 38 38 40 43 45 49 50 52 53 55 56 57 60 60 58 56 57 58 62 64 71 60 58 54 60 61 57 55 56 60 62 54 51 50 51 51 52 53 52 48 46 45
33 34 36 40 40 44 45 44 45 47 51 52 54 54 52 52 51 49 51 52 56 60 66 55 58 60 61 59 53 52 57 66 59 53 53 51 55 54 55 53 51 51 51
32 31 28 26 30 31 32 34 36 38 42 44 46 49 49 48 45 47 47 49 50 51 54 59 63 67 70 68 65 59 64 65 65 63 60 56 55 55 56 56 54 55 54
24 24 23 23 23 23 23 27 32 36 41 46 49 49 50 52 50 48 49 50 51 53 57 62 66 69 73 71 68 67 69 67 65 66 65 62 60 61 57 59 60 59 57
21 17 15 18 23 24 28 31 35 36 39 43 44 49 50 46 46 46 46 47 49 53 56 59 62 64 64 61 59 57 62 64 64 68 69 66 65 64 64 63 64 64 60
17 18 19 22 21 23 23 25 26 28 30 34 37 36 38 39 41 43 43 45 47 49 51 50 53 52 52 53 54 57 56 57 55 57 65 69 71 70 70 69 67 69 62
14 11 11 14 14 17 18 19 20 22 24 26 27 31 32 33 36 38 39 42 43 47 52 52 46 52 49 50 48 53 56 58 57 57 60 63 66 71 73 72 71 70 64
10 8 6 9 10 11 11 14 18 20 21 23 26 27 27 27 28 31 32 34 39 44 48 53 53 55 52 54 53 54 53 54 57 58 61 64 65 66 71 73 74 72 69
4 4 8 11 13 14 13 14 20 21 21 23 26 27 28 30 31 32 33 34 36 38 40 44 47 53 56 55 55 58 59 59 58 58 61 64 65 67 66 69 73 71 69
9 12 15 16 17 20 19 19 24 24 22 23 25 27 31 31 32 34 36 37 38 42 44 47 51 54 56 55 55 56 59 60 60 61 63 63 65 65 65 67 68 70 70
14 15 17 18 18 22 22 22 23 23 23 24 25 28 32 34 34 36 38 40 42 44 45 47 50 52 53 53 54 58 62 64 60 60 62 64 65 65 63 64 63 64 69
18 16 16 17 16 19 20 20 24 24 25 25 26 30 33 35 36 37 39 41 43 45 46 48 50 52 52 54 55 58 61 63 63 64 63 63 64 64 65 64 65 61 65
13 11 12 16 18 19 21 22 24 22 22 24 25 27 30 32 33 35 37 39 41 44 45 46 48 50 51 52 54 58 59 60 62 64 66 66 65 65 67 66 65 59 60
12 16 17 16 16 16 15 15 14 14 15 18 21 23 25 27 29 31 33 34 37 39 41 44 45 47 49 51 52 55 57 58 60 62 62 65 67 67 67 67 66 61 56
Wind_Direction_500mb
211 215 218 222 221 221 220 218 217 216 213 210 213 219 219 217 221 234 248 256 281 303 309 320 320 324 325 322 322 320 313 306 298 291 300 300 293 292 298 310 306 311 312
215 219 222 222 220 220 217 214 213 214 211 210 217 222 220 219 225 234 242 263 277 286 304 312 314 319 321 314 314 314 310 308 303 294 295 293 288 289 294 304 304 309 310
215 217 218 218 218 216 213 213 213 211 210 214 219 222 223 225 230 237 246 252 263 283 290 297 308 311 308 305 306 307 307 304 300 292 286 287 287 285 288 294 299 304 309
214 214 216 217 216 213 213 214 213 209 213 217 222 225 227 227 231 238 242 248 260 271 287 295 300 301 299 300 303 304 302 302 298 290 281 279 279 281 284 292 297 302 307
213 214 216 214 211 211 213 213 210 209 215 218 227 231 231 232 238 242 244 249 258 267 273 287 293 296 298 300 298 297 298 300 296 288 276 275 274 277 284 290 295 301 305
214 214 213 209 209 210 213 211 210 211 218 226 233 238 239 238 239 242 246 251 256 262 271 281 287 291 297 298 296 294 296 299 295 284 273 272 271 276 281 287 296 304 310
212 208 206 207 210 211 212 211 211 216 225 235 241 244 246 245 244 245 248 252 257 263 270 277 285 290 294 293 291 288 292 294 289 282 273 269 270 274 278 283 291 297 300
207 205 206 209 211 212 214 213 216 222 232 241 246 249 250 248 248 251 252 255 260 265 270 277 283 288 289 291 289 286 287 288 288 280 272 266 267 272 276 282 288 294 298
209 207 210 212 214 215 215 215 220 228 237 246 254 256 257 260 257 257 257 258 262 266 270 275 282 285 289 288 287 284 283 283 284 277 270 265 265 268 272 278 283 291 298
210 211 213 216 218 220 220 220 226 234 244 250 254 258 263 264 262 261 262 261 263 265 271 276 282 285 285 286 286 283 280 281 279 277 271 266 265 266 266 272 279 285 292
214 212 216 219 222 224 223 225 232 240 247 252 258 263 265 267 268 266 264 266 267 269 273 277 281 284 283 280 283 284 282 275 273 274 272 269 266 267 269 272 276 281 287
208 212 214 218 221 221 222 225 234 241 247 255 261 267 273 273 273 273 270 272 275 273 275 277 279 279 278 279 280 281 277 271 270 274 272 270 266 267 269 271 275 278 283
204 210 213 216 219 221 223 229 237 245 255 262 269 273 275 278 280 277 273 272 273 275 275 277 276 274 274 275 277 276 274 269 271 271 273 272 267 265 266 270 274 278 282
196 205 210 213 215 219 224 231 243 253 261 267 270 275 280 280 277 275 273 271 270 271 276 276 277 276 275 275 272 270 262 270 276 274 273 274 265 262 265 268 272 276 279
186 191 198 201 209 216 228 240 249 257 265 272 277 279 281 283 281 278 279 278 275 273 272 272 271 272 274 275 277 274 265 266 269 271 272 273 269 261 263 267 270 272 276
179 189 196 204 215 226 237 249 259 266 274 277 279 281 281 281 283 281 277 275 275 273 270 270 273 275 275 277 277 274 272 274 271 269 271 271 269 265 261 265 269 271 275
181 192 214 236 244 253 257 263 268 270 274 279 282 282 285 285 281 279 275 274 274 274 273 275 276 279 283 285 283 280 277 276 274 270 270 270 269 268 263 263 268 270 274
210 225 236 246 254 257 260 265 270 278 280 283 284 290 288 288 286 282 283 282 280 279 280 282 284 287 291 291 289 286 285 281 277 273 270 269 269 268 266 263 266 270 274
203 215 234 247 254 269 272 277 286 284 285 288 292 291 289 289 286 285 282 279 280 283 288 289 288 287 291 292 291 289 284 280 279 275 273 272 271 267 266 266 265 268 270
170 176 220 261 267 266 283 296 290 290 291 294 293 290 290 288 287 289 288 286 283 279 276 284 289 289 289 287 288 289 288 281 277 276 275 275 273 272 267 265 263 265 267
198 259 272 268 274 279 287 299 295 292 293 295 293 293 298 302 305 301 300 302 301 296 288 278 279 279 282 281 281 282 282 282 281 280 277 277 276 274 273 268 264 263 264
255 258 261 271 283 290 295 295 287 290 296 298 299 306 308 307 309 307 305 304 300 296 293 290 287 285 284 282 280 279 278 279 279 278 279 279 277 275 272 268 264 262 262
261 268 277 284 289 291 292 291 290 291 294 296 301 303 301 302 305 304 304 304 302 300 299 297 294 291 289 287 281 279 277 278 279 279 277 276 274 272 271 266 262 263 262
270 274 281 287 293 290 288 290 290 294 299 302 307 308 306 307 308 308 308 307 306 305 305 302 300 299 297 293 289 284 280 279 278 277 277 276 274 271 267 265 263 264 262
268 280 288 291 287 282 289 293 291 298 305 313 318 317 315 315 316 316 316 315 314 312 311 309 307 305 302 297 293 290 287 283 279 276 274 273 272 270 265 262 262 262 260
282 288 285 282 285 291 299 298 308 324 341 340 341 338 335 337 337 335 333 330 327 324 321 318 315 311 307 304 300 294 290 287 282 278 276 273 271 269 266 261 259 259 256
Wind_Speed_850mb
46 44 42 43 43 42 42 42 42 42 42 37 30 26 25 23 18 15 15 13 12 13 15 17 19 22 25 27 28 29 27 27 27 32 34 30 23 20 20 18 23 23 26
46 44 44 44 43 43 44 46 45 45 41 35 31 29 28 25 21 20 18 16 14 16 17 18 21 24 27 29 28 29 30 30 30 30 33 29 27 22 19 20 25 26 27
47 46 45 43 44 45 48 49 49 45 41 37 35 30 30 29 26 24 20 19 18 18 19 19 22 27 31 29 27 28 30 31 30 30 30 29 29 24 21 22 26 27 29
47 45 44 43 44 47 48 49 48 44 42 38 32 32 36 37 31 27 25 24 22 22 21 22 24 28 31 32 31 30 30 31 31 29 31 31 28 27 25 26 27 28 29
47 45 43 44 47 49 51 51 48 45 41 35 35 38 42 38 34 32 32 29 28 27 26 25 27 29 32 35 34 33 31 31 31 30 32 33 32 30 29 28 29 31 32
47 46 47 49 52 52 53 50 49 44 39 38 39 40 40 42 44 42 39 35 34 36 32 30 31 32 32 36 40 38 36 32 31 31 34 35 35 33 31 30 32 33 32
47 48 49 52 52 52 51 53 49 44 39 38 37 40 45 48 50 48 45 43 43 43 40 37 36 35 36 38 39 40 39 35 33 33 36 36 38 35 33 31 31 33 36
47 49 51 53 53 52 54 52 48 44 39 38 40 42 49 53 54 56 52 51 51 50 46 44 41 41 39 40 43 44 42 39 36 35 38 38 38 36 34 33 33 35 39
49 49 51 52 53 54 55 53 49 44 39 40 41 45 51 51 55 59 61 60 59 59 52 51 47 47 44 44 46 48 47 43 39 37 39 39 39 37 36 36 35 35 40
46 46 48 49 50 51 53 53 46 41 41 40 46 47 48 54 56 60 64 67 69 66 58 54 55 53 48 50 49 51 50 45 42 40 42 44 42 40 37 38 37 36 36
38 40 45 46 46 48 50 49 45 43 45 48 49 49 54 56 57 61 66 73 70 66 61 59 58 56 52 52 54 55 50 47 48 46 47 48 47 46 43 41 40 38 38
38 40 42 43 46 48 49 50 50 51 53 56 56 56 58 61 59 62 67 71 69 69 62 60 57 56 59 55 55 58 54 56 53 51 51 53 52 51 47 47 45 42 41
38 38 38 40 43 45 49 50 52 53 55 56 57 60 60 58 56 57 58 62 64 71 60 58 54 60 61 57 55 56 60 62 54 51 50 51 51 52 53 52 48 46 45
33 34 36 40 40 44 45 44 45 47 51 52 54 54 52 52 51 49 51 52 56 60 66 55 58 60 61 59 53 52 57 66 59 53 53 51 55 54 55 53 51 51 51
32 31 28 26 30 31 32 34 36 38 42 44 46 49 49 48 45 47 47 49 50 51 54 59 63 67 70 68 65 59 64 65 65 63 60 56 55 55 56 56 54 55 54
24 24 23 23 23 23 23 27 32 36 41 46 49 49 50 52 50 48 49 50 51 53 57 62 66 69 73 71 68 67 69 67 65 66 65 62 60 61 57 59 60 59 57
21 17 15 18 23 24 28 31 35 36 39 43 44 49 50 46 46 46 46 47 49 53 56 59 62 64 64 61 59 57 62 64 64 68 69 66 65 64 64 63 64 64 60
17 18 19 22 21 23 23 25 26 28 30 34 37 36 38 39 41 43 43 45 47 49 51 50 53 52 52 53 54 57 56 57 55 57 65 69 71 70 70 69 67 69 62
14 11 11 14 14 17 18 19 20 22 24 26 27 31 32 33 36 38 39 42 43 47 52 52 46 52 49 50 48 53 56 58 57 57 60 63 66 71 73 72 71 70 64
10 8 6 9 10 11 11 14 18 20 21 23 26 27 27 27 28 31 32 34 39 44 48 53 53 55 52 54 53 54 53 54 57 58 61 64 65 66 71 73 74 72 69
4 4 8 11 13 14 13 14 20 21 21 23 26 27 28 30 31 32 33 34 36 38 40 44 47 53 56 55 55 58 59 59 58 58 61 64 65 67 66 69 73 71 69
9 12 15 16 17 20 19 19 24 24 22 23 25 27 31 31 32 34 36 37 38 42 44 47 51 54 56 55 55 56 59 60 60 61 63 63 65 65 65 67 68 70 70
14 15 17 18 18 22 22 22 23 23 23 24 25 28 32 34 34 36 38 40 42 44 45 47 50 52 53 53 54 58 62 64 60 60 62 64 65 65 63 64 63 64 69
18 16 16 17 16 19 20 20 24 24 25 25 26 30 33 35 36 37 39 41 43 45 46 48 50 52 52 54 55 58 61 63 63 64 63 63 64 64 65 64 65 61 65
13 11 12 16 18 19 21 22 24 22 22 24 25 27 30 32 33 35 37 39 41 44 45 46 48 50 51 52 54 58 59 60 62 64 66 66 65 65 67 66 65 59 60
12 16 17 16 16 16 15 15 14 14 15 18 21 23 25 27 29 31 33 34 37 39 41 44 45 47 49 51 52 55 57 58 60 62 62 65 67 67 67 67 66 61 56
Wind_Direction_850mb
211 215 218 222 221 221 220 218 217 216 213 210 213 219 219 217 221 234 248 256 281 303 309 320 320 324 325 322 322 320 313 306 298 291 300 300 293 292 298 310 306 311 312
215 219 222 222 220 220 217 214 213 214 211 210 217 222 220 219 225 234 242 263 277 286 304 312 314 319 321 314 314 314 310 308 303 294 295 293 288 289 294 304 304 309 310
215 217 218 218 218 216 213 213 213 211 210 214 219 222 223 225 230 237 246 252 263 283 290 297 308 311 308 305 306 307 307 304 300 292 286 287 287 285 288 294 299 304 309
214 214 216 217 216 213 213 214 213 209 213 217 222 225 227 227 231 238 242 248 260 271 287 295 300 301 299 300 303 304 302 302 298 290 281 279 279 281 284 292 297 302 307
213 214 216 214 211 211 213 213 210 209 215 218 227 231 231 232 238 242 244 249 258 267 273 287 293 296 298 300 298 297 298 300 296 288 276 275 274 277 284 290 295 301 305
214 214 213 209 209 210 213 211 210 211 218 226 233 238 239 238 239 242 246 251 256 262 271 281 287 291 297 298 296 294 296 299 295 284 273 272 271 276 281 287 296 304 310
212 208 206 207 210 211 212 211 211 216 225 235 241 244 246 245 244 245 248 252 257 263 270 277 285 290 294 293 291 288 292 294 289 282 273 269 270 274 278 283 291 297 300
207 205 206 209 211 212 214 213 216 222 232 241 246 249 250 248 248 251 252 255 260 265 270 277 283 288 289 291 289 286 287 288 288 280 272 266 267 272 276 282 288 294 298
209 207 210 212 214 215 215 215 220 228 237 246 254 256 257 260 257 257 257 258 262 266 270 275 282 285 289 288 287 284 283 283 284 277 270 265 265 268 272 278 283 291 298
210 211 213 216 218 220 220 220 226 234 244 250 254 258 263 264 262 261 262 261 263 265 271 276 282 285 285 286 286 283 280 281 279 277 271 266 265 266 266 272 279 285 292
214 212 216 219 222 224 223 225 232 240 247 252 258 263 265 267 268 266 264 266 267 269 273 277 281 284 283 280 283 284 282 275 273 274 272 269 266 267 269 272 276 281 287
208 212 214 218 221 221 222 225 234 241 247 255 261 267 273 273 273 273 270 272 275 273 275 277 279 279 278 279 280 281 277 271 270 274 272 270 266 267 269 271 275 278 283
204 210 213 216 219 221 223 229 237 245 255 262 269 273 275 278 280 277 273 272 273 275 275 277 276 274 274 275 277 276 274 269 271 271 273 272 267 265 266 270 274 278 282
196 205 210 213 215 219 224 231 243 253 261 267 270 275 280 280 277 275 273 271 270 271 276 276 277 276 275 275 272 270 262 270 276 274 273 274 265 262 265 268 272 276 279
186 191 198 201 209 216 228 240 249 257 265 272 277 279 281 283 281 278 279 278 275 273 272 272 271 272 274 275 277 274 265 266 269 271 272 273 269 261 263 267 270 272 276
179 189 196 204 215 226 237 249 259 266 274 277 279 281 281 281 283 281 277 275 275 273 270 270 273 275 275 277 277 274 272 274 271 269 271 271 269 265 261 265 269 271 275
181 192 214 236 244 253 257 263 268 270 274 279 282 282 285 285 281 279 275 274 274 274 273 275 276 279 283 285 283 280 277 276 274 270 270 270 269 268 263 263 268 270 274
210 225 236 246 254 257 260 265 270 278 280 283 284 290 288 288 286 282 283 282 280 279 280 282 284 287 291 291 289 286 285 281 277 273 270 269 269 268 266 263 266 270 274
203 215 234 247 254 269 272 277 286 284 285 288 292 291 289 289 286 285 282 279 280 283 288 289 288 287 291 292 291 289 284 280 279 275 273 272 271 267 266 266 265 268 270
170 176 220 261 267 266 283 296 290 290 291 294 293 290 290 288 287 289 288 286 283 279 276 284 289 289 289 287 288 289 288 281 277 276 275 275 273 272 267 265 263 265 267
198 259 272 268 274 279 287 299 295 292 293 295 293 293 298 302 305 301 300 302 301 296 288 278 279 279 282 281 281 282 282 282 281 280 277 277 276 274 273 268 264 263 264
255 258 261 271 283 290 295 295 287 290 296 298 299 306 308 307 309 307 305 304 300 296 293 290 287 285 284 282 280 279 278 279 279 278 279 279 277 275 272 268 264 262 262
261 268 277 284 289 291 292 291 290 291 294 296 301 303 301 302 305 304 304 304 302 300 299 297 294 291 289 287 281 279 277 278 279 279 277 276 274 272 271 266 262 263 262
270 274 281 287 293 290 288 290 290 294 299 302 307 308 306 307 308 308 308 307 306 305 305 302 300 299 297 293 289 284 280 279 278 277 277 276 274 271 267 265 263 264 262
268 280 288 291 287 282 289 293 291 298 305 313 318 317 315 315 316 316 316 315 314 312 311 309 307 305 302 297 293 290 287 283 279 276 274 273 272 270 265 262 262 262 260
282 288 285 282 285 291 299 298 308 324 341 340 341 338 335 337 337 335 333 330 327 324 321 318 315 311 307 304 300 294 290 287 282 278 276 273 271 269 266 261 259 259 256